| time (UTC) | temp F | wind direction | speed MPH | gust MPH | rain 1hr in | rain 24hr in | rain mn in | humidity % | barometer mb |
| 20260903050205 | 63 | 220 | 3.0 | 21.0 | 0.03 | 0.03 | 0.03 | 94 | 1014.6 |
| 20260903045704 | 63 | 229 | 5.0 | 14.0 | 0.03 | 0.03 | 0.03 | 94 | 1014.4 |
| 20260903045204 | 63 | 156 | 3.0 | 12.0 | 0.03 | 0.03 | 0.03 | 94 | 1014.4 |
| 20260903044704 | 63 | 223 | 5.0 | 14.0 | 0.03 | 0.03 | 0.03 | 94 | 1014.5 |
| 20260903043704 | 63 | 162 | 5.0 | 12.0 | 0.03 | 0.03 | 0.03 | 93 | 1014.7 |
| 20260903043204 | 63 | 158 | 4.0 | 10.0 | 0.02 | 0.02 | 0.02 | 93 | 1014.9 |
| 20260903042705 | 63 | 191 | 5.0 | 12.0 | 0.02 | 0.02 | 0.02 | 93 | 1015.0 |
| 20260903042204 | 63 | 173 | 4.0 | 12.0 | 0.02 | 0.02 | 0.02 | 92 | 1015.1 |
| 20260903041705 | 63 | 174 | 3.0 | 18.0 | 0.02 | 0.02 | 0.02 | 91 | 1015.3 |
| 20260903041205 | 64 | 195 | 5.0 | 12.0 | 0.01 | 0.01 | 0.01 | 90 | 1015.5 |
| 20260903040704 | 64 | 179 | 4.0 | 12.0 | 0.01 | 0.01 | 0.01 | 89 | 1015.6 |
| 20260903040204 | 64 | 249 | 3.0 | 7.0 | 0.00 | 0.00 | 0.00 | 88 | 1015.9 |
| 20260903035704 | 64 | 296 | 3.0 | 10.0 | 0.00 | 0.00 | 0.00 | 88 | 1016.2 |
| 20260903035205 | 64 | 194 | 2.0 | 12.0 | 0.00 | 0.00 | 0.00 | 87 | 1015.9 |
| 20260903034704 | 64 | 225 | 3.0 | 5.0 | 0.00 | 0.00 | 0.00 | 86 | 1016.0 |
| 20260903034204 | 65 | 223 | 3.0 | 6.0 | 0.00 | 0.00 | 0.00 | 86 | 1015.9 |
| 20260903033204 | 65 | 219 | 3.0 | 9.0 | 0.00 | 0.00 | 0.00 | 84 | 1015.8 |
| 20260903032704 | 65 | 218 | 3.0 | 12.0 | 0.00 | 0.00 | 0.00 | 84 | 1015.8 |
| 20260903032204 | 65 | 206 | 3.0 | 9.0 | 0.00 | 0.00 | 0.00 | 83 | 1016.0 |
| 20260903031704 | 65 | 200 | 3.0 | 9.0 | 0.00 | 0.00 | 0.00 | 83 | 1016.0 |
| 20260903031204 | 65 | 201 | 2.0 | 9.0 | 0.00 | 0.00 | 0.00 | 83 | 1015.8 |
| 20260903030706 | 65 | 291 | 2.0 | 10.0 | 0.00 | 0.00 | 0.00 | 83 | 1015.7 |
| 20260903030204 | 65 | 167 | 3.0 | 8.0 | 0.00 | 0.00 | 0.00 | 83 | 1015.6 |
| 20260903025204 | 66 | 154 | 4.0 | 12.0 | 0.00 | 0.00 | 0.00 | 82 | 1015.6 |
| 20260903024204 | 66 | 180 | 3.0 | 10.0 | 0.00 | 0.00 | 0.00 | 83 | 1016.0 |
| 20260903023204 | 66 | 205 | 5.0 | 12.0 | 0.00 | 0.00 | 0.00 | 82 | 1016.2 |
| 20260903022704 | 66 | 218 | 5.0 | 9.0 | 0.00 | 0.00 | 0.00 | 82 | 1016.2 |
| 20260903022204 | 66 | 196 | 4.0 | 13.0 | 0.00 | 0.00 | 0.00 | 81 | 1016.3 |
| 20260903021705 | 66 | 228 | 3.0 | 12.0 | 0.00 | 0.00 | 0.00 | 81 | 1016.6 |
| 20260903021204 | 66 | 207 | 4.0 | 12.0 | 0.00 | 0.00 | 0.00 | 81 | 1016.8 |
| 20260903020704 | 66 | 206 | 6.0 | 13.0 | 0.00 | 0.00 | 0.00 | 81 | 1016.9 |
| 20260903020204 | 66 | 242 | 3.0 | 8.0 | 0.00 | 0.00 | 0.00 | 81 | 1016.9 |
| 20260903015705 | 66 | 265 | 4.0 | 9.0 | 0.00 | 0.00 | 0.00 | 81 | 1017.1 |
| 20260903015205 | 66 | 184 | 5.0 | 12.0 | 0.00 | 0.00 | 0.00 | 81 | 1017.1 |
| 20260903014704 | 66 | 206 | 6.0 | 12.0 | 0.00 | 0.00 | 0.00 | 81 | 1017.0 |
| 20260903014204 | 66 | 196 | 3.0 | 12.0 | 0.00 | 0.00 | 0.00 | 80 | 1017.0 |
| 20260903013204 | 66 | 218 | 6.0 | 12.0 | 0.00 | 0.00 | 0.00 | 79 | 1017.3 |
| 20260903012204 | 66 | 350 | 2.0 | 10.0 | 0.00 | 0.00 | 0.00 | 80 | 1017.8 |
| 20260903011704 | 66 | 206 | 2.0 | 6.0 | 0.00 | 0.00 | 0.00 | 79 | 1017.9 |
| 20260903011204 | 66 | 208 | 4.0 | 13.0 | 0.00 | 0.00 | 0.00 | 79 | 1017.6 |
| 20260903010705 | 66 | 214 | 3.0 | 10.0 | 0.00 | 0.00 | 0.00 | 79 | 1017.6 |
| 20260903010205 | 67 | 203 | 4.0 | 7.0 | 0.00 | 0.00 | 0.00 | 79 | 1017.7 |
| 20260903005704 | 67 | 211 | 3.0 | 7.0 | 0.00 | 0.00 | 0.00 | 78 | 1017.7 |
| 20260903005204 | 67 | 269 | 2.0 | 10.0 | 0.00 | 0.00 | 0.00 | 78 | 1017.7 |
| 20260903004704 | 67 | 213 | 2.0 | 9.0 | 0.00 | 0.00 | 0.00 | 78 | 1017.6 |
| 20260903004203 | 67 | 234 | 3.0 | 8.0 | 0.00 | 0.00 | 0.00 | 78 | 1017.5 |
| 20260903003704 | 67 | 245 | 3.0 | 8.0 | 0.00 | 0.00 | 0.00 | 78 | 1017.4 |
| 20260903003204 | 67 | 232 | 2.0 | 6.0 | 0.00 | 0.00 | 0.00 | 78 | 1017.6 |
| 20260903002704 | 67 | 243 | 3.0 | 6.0 | 0.00 | 0.00 | 0.00 | 78 | 1017.4 |
| 20260903002204 | 67 | 234 | 3.0 | 6.0 | 0.00 | 0.00 | 0.00 | 79 | 1016.8 |
| 20260903001704 | 67 | 225 | 4.0 | 12.0 | 0.00 | 0.00 | 0.00 | 79 | 1016.8 |
| 20260903001204 | 67 | 215 | 2.0 | 6.0 | 0.00 | 0.00 | 0.00 | 80 | 1016.7 |
| 20260903000704 | 67 | 200 | 3.0 | 8.0 | 0.00 | 0.00 | 0.00 | 80 | 1016.3 |
| 20260903000204 | 67 | 236 | 5.0 | 15.0 | 0.00 | 0.00 | 0.00 | 80 | 1016.1 |
| 20260902235704 | 67 | 259 | 3.0 | 12.0 | 0.00 | 0.00 | 0.00 | 81 | 1016.4 |
| 20260902235204 | 67 | 200 | 5.0 | 12.0 | 0.00 | 0.00 | 0.00 | 82 | 1016.2 |
| 20260902234704 | 67 | 212 | 5.0 | 13.0 | 0.00 | 0.00 | 0.00 | 83 | 1016.1 |
| 20260902234204 | 67 | 241 | 6.0 | 12.0 | 0.00 | 0.01 | 0.00 | 83 | 1016.2 |
| 20260902233704 | 67 | 265 | 5.0 | 12.0 | 0.00 | 0.01 | 0.00 | 83 | 1016.4 |
| 20260902232704 | 67 | 212 | 3.0 | 12.0 | 0.00 | 0.01 | 0.00 | 83 | 1016.9 |
| 20260902231204 | 67 | 228 | 4.0 | 12.0 | 0.00 | 0.01 | 0.00 | 83 | 1017.4 |
| 20260902230704 | 67 | 186 | 3.0 | 10.0 | 0.00 | 0.01 | 0.00 | 84 | 1017.4 |
| 20260902230205 | 67 | 217 | 2.0 | 6.0 | 0.00 | 0.01 | 0.00 | 83 | 1017.5 |
| 20260902225704 | 67 | 211 | 3.0 | 9.0 | 0.00 | 0.01 | 0.00 | 83 | 1017.4 |
| 20260902224203 | 67 | 181 | 4.0 | 7.0 | 0.00 | 0.01 | 0.00 | 83 | 1017.6 |
| 20260902223704 | 68 | 190 | 3.0 | 7.0 | 0.00 | 0.01 | 0.00 | 83 | 1017.9 |
| 20260902222704 | 68 | 210 | 2.0 | 7.0 | 0.00 | 0.01 | 0.00 | 83 | 1018.2 |
| 20260902222203 | 68 | 238 | 3.0 | 7.0 | 0.00 | 0.01 | 0.00 | 82 | 1018.3 |
| 20260902221705 | 68 | 226 | 5.0 | 12.0 | 0.00 | 0.01 | 0.00 | 82 | 1018.2 |
| 20260902221205 | 68 | 234 | 4.0 | 10.0 | 0.00 | 0.01 | 0.00 | 81 | 1018.3 |
| 20260902220205 | 69 | 173 | 2.0 | 7.0 | 0.00 | 0.01 | 0.00 | 82 | 1018.3 |
| 20260902215705 | 69 | 221 | 3.0 | 7.0 | 0.00 | 0.01 | 0.00 | 81 | 1018.1 |
| 20260902215205 | 69 | 161 | 3.0 | 7.0 | 0.00 | 0.01 | 0.00 | 82 | 1018.0 |
| 20260902214205 | 69 | 195 | 4.0 | 10.0 | 0.00 | 0.01 | 0.00 | 81 | 1018.1 |
| 20260902213705 | 69 | 139 | 4.0 | 9.0 | 0.00 | 0.01 | 0.00 | 82 | 1018.2 |
| 20260902213205 | 69 | 171 | 3.0 | 10.0 | 0.00 | 0.01 | 0.00 | 82 | 1018.5 |
| 20260902211705 | 69 | 212 | 4.0 | 10.0 | 0.00 | 0.01 | 0.00 | 81 | 1018.7 |
| 20260902211205 | 69 | 207 | 2.0 | 6.0 | 0.00 | 0.01 | 0.00 | 80 | 1018.6 |
| 20260902210706 | 69 | 226 | 2.0 | 5.0 | 0.00 | 0.01 | 0.00 | 83 | 1018.5 |
| 20260902210205 | 69 | 136 | 3.0 | 7.0 | 0.00 | 0.01 | 0.00 | 81 | 1018.3 |
| 20260902205705 | 69 | 234 | 1.0 | 9.0 | 0.00 | 0.01 | 0.00 | 82 | 1018.3 |
| 20260902204705 | 69 | 181 | 4.0 | 10.0 | 0.00 | 0.01 | 0.00 | 81 | 1018.1 |
| 20260902203204 | 69 | 211 | 3.0 | 5.0 | 0.00 | 0.01 | 0.00 | 80 | 1018.6 |
| 20260902202705 | 70 | 221 | 2.0 | 5.0 | 0.00 | 0.01 | 0.00 | 80 | 1018.5 |
| 20260902202205 | 70 | 199 | 2.0 | 6.0 | 0.00 | 0.01 | 0.00 | 79 | 1018.5 |
| 20260902201705 | 70 | 216 | 4.0 | 12.0 | 0.00 | 0.01 | 0.00 | 80 | 1018.3 |
| 20260902201205 | 70 | 225 | 2.0 | 7.0 | 0.00 | 0.01 | 0.00 | 80 | 1018.4 |
| 20260902200205 | 70 | 228 | 2.0 | 6.0 | 0.00 | 0.01 | 0.00 | 78 | 1018.4 |
| 20260902195705 | 70 | 185 | 2.0 | 6.0 | 0.00 | 0.01 | 0.00 | 78 | 1018.2 |
| 20260902194705 | 69 | 154 | 2.0 | 7.0 | 0.00 | 0.01 | 0.00 | 79 | 1018.3 |
| 20260902194205 | 69 | 223 | 3.0 | 7.0 | 0.00 | 0.01 | 0.00 | 80 | 1018.5 |
| 20260902193705 | 69 | 215 | 2.0 | 8.0 | 0.00 | 0.01 | 0.00 | 80 | 1018.6 |
| 20260902193205 | 69 | 184 | 2.0 | 9.0 | 0.00 | 0.01 | 0.00 | 78 | 1018.8 |
| 20260902192705 | 69 | 222 | 2.0 | 6.0 | 0.00 | 0.01 | 0.00 | 76 | 1018.8 |
| 20260902192205 | 70 | 207 | 2.0 | 6.0 | 0.00 | 0.01 | 0.00 | 78 | 1018.7 |
| 20260902191704 | 70 | 184 | 2.0 | 6.0 | 0.00 | 0.01 | 0.00 | 80 | 1018.6 |
| 20260902191204 | 70 | 137 | 2.0 | 6.0 | 0.00 | 0.01 | 0.00 | 79 | 1018.7 |
| 20260902190705 | 70 | 142 | 3.0 | 7.0 | 0.00 | 0.01 | 0.00 | 79 | 1018.7 |
| 20260902185705 | 69 | 151 | 5.0 | 12.0 | 0.00 | 0.01 | 0.00 | 78 | 1018.5 |
| 20260902185207 | 69 | 133 | 3.0 | 12.0 | 0.00 | 0.01 | 0.00 | 80 | 1018.4 |
| 20260902184705 | 69 | 163 | 3.0 | 10.0 | 0.00 | 0.01 | 0.00 | 79 | 1018.4 |
| 20260902184206 | 69 | 237 | 3.0 | 10.0 | 0.00 | 0.01 | 0.00 | 80 | 1018.5 |
| 20260902183705 | 69 | 185 | 4.0 | 14.0 | 0.00 | 0.01 | 0.00 | 81 | 1018.6 |
| 20260902182705 | 68 | 147 | 3.0 | 12.0 | 0.00 | 0.01 | 0.00 | 81 | 1018.4 |
| 20260902182205 | 68 | 152 | 2.0 | 12.0 | 0.00 | 0.01 | 0.00 | 81 | 1018.6 |
| 20260902181704 | 68 | 187 | 5.0 | 10.0 | 0.00 | 0.01 | 0.00 | 81 | 1018.9 |
| 20260902181205 | 68 | 133 | 4.0 | 10.0 | 0.00 | 0.01 | 0.00 | 79 | 1019.0 |
| 20260902180705 | 68 | 215 | 2.0 | 12.0 | 0.00 | 0.01 | 0.00 | 79 | 1019.3 |
| 20260902180205 | 68 | 225 | 2.0 | 3.0 | 0.00 | 0.01 | 0.00 | 77 | 1019.2 |
| 20260902175704 | 69 | 225 | 3.0 | 12.0 | 0.00 | 0.01 | 0.00 | 79 | 1019.3 |
| 20260902174704 | 69 | 206 | 5.0 | 9.0 | 0.00 | 0.01 | 0.00 | 79 | 1019.0 |
| 20260902174204 | 69 | 244 | 3.0 | 16.0 | 0.00 | 0.01 | 0.00 | 79 | 1018.9 |
| 20260902173204 | 69 | 159 | 5.0 | 10.0 | 0.00 | 0.01 | 0.00 | 81 | 1018.7 |
| 20260902172205 | 68 | 219 | 4.0 | 10.0 | 0.00 | 0.01 | 0.00 | 79 | 1019.2 |
| 20260902171705 | 68 | 205 | 7.0 | 14.0 | 0.00 | 0.01 | 0.00 | 80 | 1019.3 |
| 20260902171205 | 69 | 242 | 2.0 | 8.0 | 0.00 | 0.01 | 0.00 | 78 | 1019.4 |
| 20260902170204 | 69 | 224 | 2.0 | 6.0 | 0.00 | 0.01 | 0.00 | 79 | 1019.6 |
| 20260902165705 | 69 | 211 | 1.0 | 6.0 | 0.00 | 0.01 | 0.00 | 80 | 1019.6 |
| 20260902164205 | 70 | 140 | 3.0 | 14.0 | 0.00 | 0.01 | 0.00 | 77 | 1019.4 |
| 20260902163705 | 70 | 258 | 5.0 | 14.0 | 0.00 | 0.01 | 0.00 | 77 | 1019.4 |
| 20260902163205 | 70 | 196 | 5.0 | 16.0 | 0.00 | 0.01 | 0.00 | 80 | 1019.5 |
| 20260902162705 | 70 | 200 | 3.0 | 7.0 | 0.00 | 0.01 | 0.00 | 79 | 1019.6 |
| 20260902162205 | 69 | 211 | 2.0 | 12.0 | 0.00 | 0.01 | 0.00 | 78 | 1019.6 |
| 20260902161705 | 69 | 240 | 3.0 | 9.0 | 0.00 | 0.01 | 0.00 | 79 | 1019.7 |
| 20260902160705 | 69 | 231 | 3.0 | 5.0 | 0.00 | 0.01 | 0.00 | 81 | 1019.8 |
| 20260902160206 | 69 | 229 | 2.0 | 3.0 | 0.00 | 0.01 | 0.00 | 80 | 1019.9 |
| 20260902155205 | 70 | 217 | 2.0 | 3.0 | 0.00 | 0.01 | 0.00 | 80 | 1020.0 |
| 20260902154205 | 71 | 217 | 3.0 | 8.0 | 0.00 | 0.01 | 0.00 | 79 | 1019.8 |
| 20260902153706 | 70 | 216 | 3.0 | 10.0 | 0.00 | 0.01 | 0.00 | 80 | 1019.8 |
| 20260902153205 | 70 | 221 | 3.0 | 8.0 | 0.00 | 0.01 | 0.00 | 82 | 1019.9 |
| 20260902152704 | 69 | 181 | 3.0 | 8.0 | 0.00 | 0.01 | 0.00 | 79 | 1019.9 |
| 20260902152204 | 69 | 224 | 3.0 | 7.0 | 0.00 | 0.02 | 0.00 | 81 | 1019.9 |
| 20260902151705 | 69 | 176 | 2.0 | 8.0 | 0.00 | 0.03 | 0.00 | 82 | 1019.9 |
| 20260902151205 | 69 | 168 | 2.0 | 5.0 | 0.00 | 0.11 | 0.00 | 82 | 1019.9 |
| 20260902150705 | 68 | 132 | 2.0 | 3.0 | 0.00 | 0.13 | 0.00 | 84 | 1019.8 |
| 20260902150204 | 68 | 209 | 2.0 | 10.0 | 0.00 | 0.13 | 0.00 | 82 | 1019.8 |
| 20260902145704 | 68 | 182 | 4.0 | 9.0 | 0.00 | 0.13 | 0.00 | 81 | 1019.9 |
| 20260902145204 | 68 | 208 | 2.0 | 7.0 | 0.00 | 0.14 | 0.00 | 85 | 1020.0 |
| 20260902144705 | 68 | 221 | 3.0 | 9.0 | 0.00 | 0.14 | 0.00 | 83 | 1020.0 |
| 20260902144205 | 67 | 206 | 2.0 | 6.0 | 0.00 | 0.14 | 0.00 | 81 | 1020.0 |
| 20260902143705 | 67 | 210 | 4.0 | 10.0 | 0.00 | 0.14 | 0.00 | 81 | 1020.2 |
| 20260902143204 | 67 | 237 | 2.0 | 8.0 | 0.00 | 0.14 | 0.00 | 82 | 1020.2 |
| 20260902142705 | 67 | 147 | 3.0 | 10.0 | 0.00 | 0.14 | 0.00 | 82 | 1020.2 |
| 20260902142205 | 67 | 176 | 3.0 | 9.0 | 0.00 | 0.14 | 0.00 | 82 | 1020.0 |
| 20260902141705 | 67 | 154 | 2.0 | 6.0 | 0.00 | 0.14 | 0.00 | 84 | 1019.9 |
| 20260902141205 | 66 | 220 | 2.0 | 5.0 | 0.00 | 0.14 | 0.00 | 85 | 1019.9 |
| 20260902140704 | 66 | 191 | 1.0 | 7.0 | 0.00 | 0.14 | 0.00 | 83 | 1019.9 |
| 20260902140205 | 66 | 187 | 1.0 | 5.0 | 0.00 | 0.14 | 0.00 | 82 | 1020.0 |
| 20260902135704 | 65 | 248 | 2.0 | 3.0 | 0.00 | 0.14 | 0.00 | 84 | 1020.1 |
| 20260902135205 | 65 | 230 | 1.0 | 3.0 | 0.00 | 0.14 | 0.00 | 83 | 1020.0 |
| 20260902134704 | 65 | 162 | 2.0 | 3.0 | 0.00 | 0.14 | 0.00 | 84 | 1020.1 |
| 20260902134205 | 65 | 222 | 1.0 | 3.0 | 0.00 | 0.14 | 0.00 | 83 | 1020.0 |
| 20260902133205 | 65 | 216 | 1.0 | 3.0 | 0.00 | 0.15 | 0.00 | 84 | 1019.9 |
| 20260902132704 | 64 | 249 | 1.0 | 3.0 | 0.00 | 0.15 | 0.00 | 84 | 1019.9 |
| 20260902132204 | 64 | 218 | 0.0 | 0.0 | 0.00 | 0.15 | 0.00 | 83 | 1019.9 |
| 20260902130704 | 64 | 225 | 0.0 | 0.0 | 0.00 | 0.16 | 0.00 | 85 | 1019.6 |
| 20260902130205 | 64 | 224 | 0.0 | 0.0 | 0.00 | 0.16 | 0.00 | 86 | 1019.7 |
| 20260902125205 | 64 | 224 | 0.0 | 0.0 | 0.00 | 0.16 | 0.00 | 87 | 1019.4 |
| 20260902124705 | 64 | 244 | 0.0 | 0.0 | 0.00 | 0.16 | 0.00 | 87 | 1019.5 |
| 20260902124205 | 64 | 225 | 0.0 | 0.0 | 0.00 | 0.16 | 0.00 | 88 | 1019.3 |
| 20260902123204 | 64 | 217 | 0.0 | 0.0 | 0.00 | 0.16 | 0.00 | 88 | 1019.4 |
| 20260902122704 | 63 | 222 | 0.0 | 0.0 | 0.00 | 0.16 | 0.00 | 89 | 1019.3 |
| 20260902122204 | 63 | 263 | 0.0 | 0.0 | 0.00 | 0.16 | 0.00 | 89 | 1019.4 |
| 20260902121205 | 63 | 196 | 0.0 | 0.0 | 0.00 | 0.16 | 0.00 | 90 | 1019.4 |
| 20260902120704 | 63 | 235 | 0.0 | 0.0 | 0.00 | 0.16 | 0.00 | 90 | 1019.3 |
| 20260902115205 | 63 | 218 | 0.0 | 0.0 | 0.00 | 0.16 | 0.00 | 91 | 1019.3 |
| 20260902114205 | 64 | 193 | 0.0 | 0.0 | 0.00 | 0.17 | 0.00 | 92 | 1019.3 |
| 20260902113705 | 64 | 163 | 0.0 | 0.0 | 0.00 | 0.19 | 0.00 | 92 | 1019.5 |
| 20260902112704 | 63 | 190 | 0.0 | 0.0 | 0.00 | 0.31 | 0.00 | 93 | 1019.5 |
| 20260902112205 | 63 | 168 | 0.0 | 0.0 | 0.00 | 0.32 | 0.00 | 93 | 1019.5 |
| 20260902111705 | 63 | 152 | 0.0 | 0.0 | 0.00 | 0.32 | 0.00 | 95 | 1019.6 |
| 20260902111204 | 63 | 176 | 0.0 | 0.0 | 0.00 | 0.33 | 0.00 | 96 | 1019.6 |
| 20260902110705 | 63 | 166 | 0.0 | 0.0 | 0.00 | 0.35 | 0.00 | 96 | 1019.7 |
| 20260902110204 | 63 | 190 | 0.0 | 0.0 | 0.00 | 0.37 | 0.00 | 96 | 1019.8 |
| 20260902105705 | 63 | 173 | 0.0 | 0.0 | 0.00 | 0.39 | 0.00 | 97 | 1019.8 |
| 20260902105205 | 63 | 183 | 0.0 | 0.0 | 0.00 | 0.41 | 0.00 | 96 | 1019.8 |
| 20260902104704 | 63 | 180 | 0.0 | 0.0 | 0.00 | 0.43 | 0.00 | 97 | 1019.7 |
| 20260902104204 | 63 | 57 | 0.0 | 0.0 | 0.00 | 0.51 | 0.00 | 97 | 1019.6 |
| 20260902103704 | 63 | 57 | 0.0 | 0.0 | 0.00 | 0.72 | 0.00 | 98 | 1019.5 |
| 20260902103204 | 63 | 57 | 0.0 | 0.0 | 0.00 | 0.86 | 0.00 | 97 | 1019.5 |
| 20260902102704 | 63 | 57 | 0.0 | 0.0 | 0.00 | 0.86 | 0.00 | 98 | 1019.3 |
| 20260902102204 | 63 | 57 | 0.0 | 0.0 | 0.00 | 0.87 | 0.00 | 98 | 1019.4 |
| 20260902101704 | 63 | 57 | 0.0 | 0.0 | 0.00 | 0.87 | 0.00 | 98 | 1019.4 |
| 20260902100704 | 63 | 57 | 0.0 | 0.0 | 0.00 | 0.92 | 0.00 | 98 | 1019.4 |
| 20260902100205 | 63 | 57 | 0.0 | 0.0 | 0.00 | 1.00 | 0.00 | 98 | 1019.2 |
| 20260902095705 | 63 | 57 | 0.0 | 0.0 | 0.00 | 1.04 | 0.00 | 98 | 1019.1 |
| 20260902095206 | 63 | 57 | 0.0 | 0.0 | 0.00 | 1.07 | 0.00 | 98 | 1019.1 |
| 20260902094705 | 63 | 57 | 0.0 | 0.0 | 0.00 | 1.11 | 0.00 | 98 | 1018.9 |
| 20260902094205 | 63 | 57 | 0.0 | 0.0 | 0.00 | 1.15 | 0.00 | 98 | 1018.9 |
| 20260902093705 | 63 | 57 | 0.0 | 0.0 | 0.00 | 1.18 | 0.00 | 98 | 1018.8 |
| 20260902093204 | 63 | 57 | 0.0 | 0.0 | 0.00 | 1.21 | 0.00 | 98 | 1019.0 |
| 20260902092704 | 63 | 57 | 0.0 | 0.0 | 0.00 | 1.23 | 0.00 | 98 | 1018.9 |
| 20260902091705 | 63 | 57 | 0.0 | 0.0 | 0.00 | 1.24 | 0.00 | 98 | 1018.8 |
| 20260902091204 | 63 | 57 | 0.0 | 0.0 | 0.00 | 1.25 | 0.00 | 98 | 1018.8 |
| 20260902090704 | 63 | 57 | 0.0 | 0.0 | 0.00 | 1.25 | 0.00 | 98 | 1018.7 |
| 20260902090205 | 63 | 57 | 0.0 | 0.0 | 0.00 | 1.25 | 0.00 | 98 | 1018.6 |
| 20260902085204 | 63 | 57 | 0.0 | 0.0 | 0.00 | 1.25 | 0.00 | 97 | 1018.5 |
| 20260902084704 | 63 | 67 | 0.0 | 0.0 | 0.00 | 1.25 | 0.00 | 97 | 1018.5 |
| 20260902084205 | 63 | 104 | 0.0 | 0.0 | 0.00 | 1.25 | 0.00 | 97 | 1018.4 |
| 20260902083704 | 63 | 248 | 0.0 | 0.0 | 0.00 | 1.25 | 0.00 | 97 | 1018.6 |
| 20260902083204 | 63 | 254 | 0.0 | 0.0 | 0.00 | 1.25 | 0.00 | 96 | 1018.5 |
| 20260902082704 | 63 | 254 | 0.0 | 0.0 | 0.00 | 1.25 | 0.00 | 96 | 1018.6 |
| 20260902081704 | 63 | 254 | 0.0 | 0.0 | 0.00 | 1.25 | 0.00 | 96 | 1018.6 |
| 20260902081204 | 63 | 254 | 0.0 | 0.0 | 0.00 | 1.25 | 0.00 | 97 | 1018.7 |
| 20260902080204 | 63 | 257 | 0.0 | 0.0 | 0.00 | 1.25 | 0.00 | 97 | 1018.6 |
| 20260902075705 | 63 | 180 | 0.0 | 0.0 | 0.00 | 1.25 | 0.00 | 96 | 1018.6 |
| 20260902075204 | 63 | 180 | 0.0 | 0.0 | 0.00 | 1.25 | 0.00 | 96 | 1018.5 |
| 20260902074705 | 63 | 180 | 0.0 | 0.0 | 0.00 | 1.25 | 0.00 | 96 | 1018.5 |
| 20260902074206 | 63 | 179 | 0.0 | 0.0 | 0.00 | 1.25 | 0.00 | 96 | 1018.5 |
| 20260902073705 | 63 | 121 | 0.0 | 0.0 | 0.00 | 1.25 | 0.00 | 96 | 1018.5 |
| 20260902073205 | 63 | 157 | 0.0 | 0.0 | 0.00 | 1.25 | 0.00 | 97 | 1018.4 |
| 20260902072705 | 63 | 165 | 0.0 | 0.0 | 0.00 | 1.25 | 0.00 | 97 | 1018.5 |
| 20260902071704 | 63 | 192 | 0.0 | 0.0 | 0.00 | 1.25 | 0.00 | 97 | 1018.5 |
| 20260902070204 | 63 | 150 | 0.0 | 0.0 | 0.00 | 1.25 | 0.00 | 97 | 1018.6 |
| 20260902065705 | 63 | 150 | 0.0 | 0.0 | 0.00 | 1.25 | 0.00 | 97 | 1018.7 |
| 20260902064705 | 63 | 150 | 0.0 | 0.0 | 0.00 | 1.25 | 0.00 | 97 | 1018.8 |
| 20260902064205 | 63 | 150 | 0.0 | 0.0 | 0.00 | 1.25 | 0.00 | 98 | 1018.7 |
| 20260902063705 | 63 | 150 | 0.0 | 0.0 | 0.00 | 1.25 | 0.00 | 97 | 1018.8 |
| 20260902063205 | 63 | 150 | 0.0 | 0.0 | 0.00 | 1.25 | 0.00 | 97 | 1018.8 |
| 20260902062705 | 63 | 150 | 0.0 | 0.0 | 0.00 | 1.25 | 0.00 | 97 | 1018.8 |
| 20260902062204 | 63 | 150 | 0.0 | 0.0 | 0.00 | 1.25 | 0.00 | 97 | 1018.7 |
| 20260902061704 | 63 | 150 | 0.0 | 0.0 | 0.00 | 1.25 | 0.00 | 97 | 1018.8 |
| 20260902061205 | 63 | 150 | 0.0 | 0.0 | 0.00 | 1.25 | 0.00 | 98 | 1018.8 |
| 20260902060204 | 63 | 150 | 0.0 | 0.0 | 0.00 | 1.25 | 0.00 | 98 | 1018.7 |
| 20260902055205 | 63 | 200 | 0.0 | 0.0 | 0.00 | 1.25 | 0.00 | 98 | 1018.6 |
| 20260902054704 | 63 | 200 | 0.0 | 0.0 | 0.00 | 1.25 | 0.00 | 97 | 1018.6 |
| 20260902054204 | 63 | 200 | 0.0 | 0.0 | 0.00 | 1.25 | 0.00 | 97 | 1018.7 |
| 20260902053704 | 63 | 200 | 0.0 | 0.0 | 0.00 | 1.25 | 0.00 | 97 | 1018.5 |
| 20260902053204 | 63 | 200 | 0.0 | 0.0 | 0.00 | 1.25 | 0.00 | 97 | 1018.4 |
| 20260902052704 | 63 | 200 | 0.0 | 0.0 | 0.00 | 1.25 | 0.00 | 97 | 1018.4 |
| 20260902052204 | 63 | 200 | 0.0 | 0.0 | 0.00 | 1.25 | 0.00 | 97 | 1018.2 |
| 20260902051704 | 63 | 202 | 0.0 | 0.0 | 0.00 | 1.25 | 0.00 | 97 | 1018.2 |
| 20260902050704 | 63 | 202 | 0.0 | 0.0 | 0.00 | 1.25 | 0.00 | 97 | 1018.2 |